, NV

(GMT )
Eureka Airport

Weather History for K05U - October, 2013

Change the Weather History Date:

Thursday, October 3, 2013

  Actual Average Record
Temperature  
Mean Temperature 36 °F -  
Max Temperature 48 °F - - ()
Min Temperature 23 °F - - ()
Degree Days  
Heating Degree Days 30    
Moisture  
Dew Point 16 °F    
Average Humidity 41    
Maximum Humidity 68    
Minimum Humidity 25    
Precipitation  
Precipitation 0.00 in - - ()
Sea Level Pressure  
Sea Level Pressure 30.10 in    
Wind  
Wind Speed 9 mph (North)    
Max Wind Speed 22 mph    
Max Gust Speed 30 mph    
Visibility 10 miles    
Events      
Averages and records for this station are not official NWS values.
T = Trace of Precipitation, MM = Missing Value Source: NWS Daily Summary

Daily Weather History Graph

Daily Weather History Graph

Search for Another Location

Airport or City:

Trip Planner

Search our weather history database for the weather conditions in past years. The results will help you decide how hot, cold, wet, or windy it might be!

Date:

Astronomy

Oct. 03, 2013 Rise Set
Actual Time 6:42 AM PDT 6:22 PM PDT
Civil Twilight 6:15 AM PDT 6:49 PM PDT
Nautical Twilight 5:44 AM PDT 7:20 PM PDT
Astronomical Twilight 5:12 AM PDT 7:52 PM PDT
Moon 5:20 AM PDT (10/3) 5:33 PM PDT (10/3)
Length of Visible Light 12h 34m
Length of Day
11h 40m
Waning Crescent, 2% of the Moon is Illuminated
Oct 3
Waning Crescent
Oct 4
New
Oct 11
First Quarter
Oct 18
Full
Oct 26
Last Quarter

Hourly Weather History & Observations

Time (PDT) Temp. Windchill Dew Point Humidity Pressure Visibility Wind Dir Wind Speed Gust Speed Precip Events Conditions
12:05 AM 46.4 °F 40.4 °F 15.8 °F 29% 29.98 in 10.0 mi North 13.8 mph - N/A   Clear
12:25 AM 44.6 °F 42.2 °F 14.0 °F 29% 29.98 in 10.0 mi ENE 4.6 mph - N/A   Clear
12:45 AM 41.0 °F 37.1 °F 15.8 °F 36% 30.00 in 10.0 mi ENE 5.8 mph - N/A   Clear
1:05 AM 39.2 °F 35.9 °F 14.0 °F 36% 29.99 in 10.0 mi NNW 4.6 mph - N/A   Clear
1:25 AM 39.2 °F 35.0 °F 14.0 °F 36% 30.00 in 10.0 mi NNW 5.8 mph - N/A   Clear
1:45 AM 37.4 °F 33.8 °F 15.8 °F 41% 30.01 in 10.0 mi NE 4.6 mph - N/A   Clear
2:05 AM 37.4 °F - 14.0 °F 38% 30.01 in 10.0 mi Calm Calm - N/A   Clear
2:25 AM 35.6 °F 30.7 °F 14.0 °F 41% 30.01 in 10.0 mi North 5.8 mph - N/A   Clear
2:45 AM 32.0 °F 27.5 °F 15.8 °F 51% 30.02 in 10.0 mi SSE 4.6 mph - N/A   Clear
3:05 AM 32.0 °F - 15.8 °F 51% 30.01 in 10.0 mi Calm Calm - N/A   Clear
3:25 AM 28.4 °F 23.3 °F 14.0 °F 55% 30.01 in 10.0 mi East 4.6 mph - N/A   Clear
3:45 AM 26.6 °F - 14.0 °F 59% 30.02 in 10.0 mi Calm Calm - N/A   Clear
4:05 AM 26.6 °F 19.1 °F 12.2 °F 55% 30.02 in 10.0 mi NW 6.9 mph - N/A   Clear
4:25 AM 26.6 °F 20.0 °F 14.0 °F 59% 30.02 in 10.0 mi SSW 5.8 mph - N/A   Clear
4:45 AM 28.4 °F - 15.8 °F 59% 30.02 in 10.0 mi Calm Calm - N/A   Clear
5:05 AM 26.6 °F 22.6 °F 14.0 °F 59% 30.01 in 10.0 mi South 3.5 mph - N/A   Clear
5:25 AM 28.4 °F - 15.8 °F 59% 30.01 in 10.0 mi Calm Calm - N/A   Clear
5:45 AM 26.6 °F - 14.0 °F 59% 30.01 in 10.0 mi Calm Calm - N/A   Clear
6:05 AM 24.8 °F - 14.0 °F 64% 30.02 in 10.0 mi Calm Calm - N/A   Clear
6:25 AM 23.0 °F - 14.0 °F 68% 30.02 in 10.0 mi Calm Calm - N/A   Partly Cloudy
6:45 AM 24.8 °F - 14.0 °F 64% 30.02 in 10.0 mi Calm Calm - N/A   Partly Cloudy
7:05 AM 24.8 °F - 14.0 °F 64% 30.02 in 10.0 mi Calm Calm - N/A   Clear
7:25 AM 24.8 °F - 14.0 °F 64% 30.03 in 10.0 mi Calm Calm - N/A   Mostly Cloudy
7:45 AM 28.4 °F 23.3 °F 17.6 °F 64% 30.04 in 10.0 mi NNE 4.6 mph - N/A   Overcast
8:05 AM 35.6 °F 29.9 °F 19.4 °F 52% 30.04 in 10.0 mi NE 6.9 mph - N/A   Overcast
8:25 AM 35.6 °F 29.2 °F 19.4 °F 52% 30.05 in 10.0 mi NNE 8.1 mph - N/A   Overcast
8:45 AM 37.4 °F 30.3 °F 19.4 °F 48% 30.06 in 10.0 mi North 10.4 mph - N/A   Overcast
9:05 AM 37.4 °F 31.4 °F 19.4 °F 48% 30.07 in 10.0 mi North 8.1 mph - N/A   Mostly Cloudy
9:25 AM 41.0 °F 32.2 °F 19.4 °F 42% 30.07 in 10.0 mi North 18.4 mph 23.0 mph N/A   Overcast
9:45 AM 39.2 °F 31.2 °F 19.4 °F 45% 30.08 in 10.0 mi NNW 13.8 mph - N/A   Overcast
10:05 AM 42.8 °F 35.8 °F 17.6 °F 36% 30.08 in 10.0 mi NW 13.8 mph 19.6 mph N/A   Scattered Clouds
10:25 AM 44.6 °F 38.4 °F 14.0 °F 29% 30.08 in 10.0 mi NW 12.7 mph 20.7 mph N/A   Scattered Clouds
10:45 AM 41.0 °F 35.2 °F 17.6 °F 39% 30.09 in 9.0 mi NNW 9.2 mph - N/A   Mostly Cloudy
11:05 AM 44.6 °F 36.4 °F 15.8 °F 31% 30.09 in 10.0 mi North 20.7 mph 26.5 mph N/A   Mostly Cloudy
11:25 AM 41.0 °F 31.6 °F 17.6 °F 39% 30.10 in 10.0 mi North 20.7 mph 24.2 mph N/A   Overcast
11:45 AM 44.6 °F 36.4 °F 21.2 °F 39% 30.12 in 10.0 mi North 20.7 mph 29.9 mph N/A   Mostly Cloudy
12:05 PM 42.8 °F 35.8 °F 19.4 °F 39% 30.12 in 10.0 mi North 13.8 mph 24.2 mph N/A   Scattered Clouds
12:25 PM 44.6 °F 37.8 °F 19.4 °F 37% 30.12 in 10.0 mi North 15.0 mph 21.9 mph N/A   Scattered Clouds
12:45 PM 42.8 °F 37.0 °F 17.6 °F 36% 30.12 in 10.0 mi NNE 10.4 mph 18.4 mph N/A   Mostly Cloudy
1:05 PM 44.6 °F 38.4 °F 15.8 °F 31% 30.12 in 10.0 mi North 12.7 mph 20.7 mph N/A   Overcast
1:25 PM 44.6 °F 37.8 °F 14.0 °F 29% 30.12 in 10.0 mi NNW 15.0 mph 21.9 mph N/A   Overcast
1:45 PM 48.2 °F - 14.0 °F 25% 30.11 in 10.0 mi NW 16.1 mph 24.2 mph N/A   Mostly Cloudy
2:05 PM 48.2 °F - 14.0 °F 25% 30.11 in 10.0 mi NNW 13.8 mph 21.9 mph N/A   Scattered Clouds
2:25 PM 48.2 °F - 14.0 °F 25% 30.12 in 10.0 mi North 13.8 mph 21.9 mph N/A   Mostly Cloudy
2:45 PM 48.2 °F - 14.0 °F 25% 30.12 in 10.0 mi North 13.8 mph 24.2 mph N/A   Mostly Cloudy
3:05 PM 44.6 °F 36.9 °F 14.0 °F 29% 30.13 in 10.0 mi North 18.4 mph 23.0 mph N/A   Mostly Cloudy
3:25 PM 48.2 °F - 14.0 °F 25% 30.12 in 10.0 mi NNW 15.0 mph 26.5 mph N/A   Partly Cloudy
3:45 PM 48.2 °F - 14.0 °F 25% 30.12 in 10.0 mi North 16.1 mph 19.6 mph N/A   Mostly Cloudy
4:05 PM 46.4 °F 39.5 °F 12.2 °F 25% 30.12 in 10.0 mi NNW 17.3 mph - N/A   Mostly Cloudy
4:25 PM 48.2 °F - 14.0 °F 25% 30.12 in 10.0 mi North 17.3 mph 24.2 mph N/A   Partly Cloudy
4:45 PM 46.4 °F 39.0 °F 12.2 °F 25% 30.13 in 10.0 mi North 19.6 mph - N/A   Clear
5:05 PM 46.4 °F 38.5 °F 14.0 °F 27% 30.14 in 10.0 mi North 21.9 mph 27.6 mph N/A   Mostly Cloudy
5:25 PM 46.4 °F 39.2 °F 12.2 °F 25% 30.15 in 10.0 mi North 18.4 mph 27.6 mph N/A   Scattered Clouds
5:45 PM 44.6 °F 36.6 °F 14.0 °F 29% 30.15 in 10.0 mi North 19.6 mph 23.0 mph N/A   Clear
6:05 PM 42.8 °F 34.8 °F 14.0 °F 31% 30.16 in 10.0 mi North 17.3 mph 24.2 mph N/A   Clear
6:25 PM 41.0 °F 33.9 °F 14.0 °F 33% 30.17 in 10.0 mi North 12.7 mph - N/A   Clear
6:45 PM 39.2 °F 32.0 °F 14.0 °F 36% 30.17 in 10.0 mi NNW 11.5 mph - N/A   Partly Cloudy
7:05 PM 39.2 °F 33.0 °F 14.0 °F 36% 30.18 in 10.0 mi NNW 9.2 mph - N/A   Mostly Cloudy
7:25 PM 39.2 °F 32.5 °F 14.0 °F 36% 30.19 in 10.0 mi NNW 10.4 mph - N/A   Overcast
7:45 PM 39.2 °F 31.6 °F 15.8 °F 39% 30.19 in 10.0 mi NNW 12.7 mph 17.3 mph N/A   Overcast
8:05 PM 39.2 °F 31.6 °F 15.8 °F 39% 30.20 in 10.0 mi NNW 12.7 mph - N/A   Overcast
8:25 PM 39.2 °F 35.0 °F 17.6 °F 42% 30.21 in 10.0 mi North 5.8 mph - N/A   Overcast
8:45 PM 37.4 °F 31.4 °F 17.6 °F 45% 30.21 in 10.0 mi North 8.1 mph - N/A   Overcast
9:45 PM 39.2 °F 32.5 °F 17.6 °F 42% 30.22 in 10.0 mi NNW 10.4 mph - N/A   Overcast
10:05 PM 39.2 °F 32.0 °F 17.6 °F 42% 30.22 in 10.0 mi NNW 11.5 mph - N/A   Overcast
10:25 PM 39.2 °F 33.0 °F 17.6 °F 42% 30.23 in 10.0 mi NNW 9.2 mph - N/A   Overcast
10:45 PM 39.2 °F 31.6 °F 17.6 °F 42% 30.24 in 10.0 mi North 12.7 mph - N/A   Overcast
11:05 PM 39.2 °F 33.6 °F 17.6 °F 42% 30.24 in 10.0 mi NNW 8.1 mph - N/A   Overcast
11:25 PM 39.2 °F 32.5 °F 19.4 °F 45% 30.24 in 10.0 mi NNW 10.4 mph 16.1 mph N/A   Overcast
11:45 PM 37.4 °F 33.8 °F 19.4 °F 48% 30.24 in 10.0 mi WNW 4.6 mph - N/A   Overcast